YU7OR-2 Weather Reports


time (UTC)temp
C
wind
direction
speed
KPH
gust
KPH
rain 1hr
cm
rain 24hr
cm
rain mn
cm
humidity
%
barometer
mb
20260906023551 18 211 0.0 8.0 0.00 0.00 0.00 55 1017.6
20260906023141 18 207 0.0 3.2 0.00 0.00 0.00 55 1017.8
20260906022701 18 204 0.0 3.2 0.00 0.00 0.00 54 1017.6
20260906022246 18 210 0.0 8.0 0.00 0.00 0.00 54 1017.7
20260906021816 18 206 0.0 8.0 0.00 0.00 0.00 54 1017.7
20260906021346 18 223 0.0 8.0 0.00 0.00 0.00 54 1017.8
20260906020926 18 212 0.0 12.9 0.00 0.00 0.00 54 1017.7
20260906020451 18 217 0.0 8.0 0.00 0.00 0.00 56 1017.6
20260906020046 18 217 0.0 8.0 0.00 0.00 0.00 56 1017.6
20260906015546 18 211 0.0 8.0 0.00 0.00 0.00 56 1017.6
20260906015126 18 211 0.0 8.0 0.00 0.00 0.00 56 1017.6
20260906014701 18 207 0.0 3.2 0.00 0.00 0.00 56 1017.5
20260906014231 18 0.0 0.0 0.00 0.00 0.00 56 1017.5
20260906013821 18 201 0.0 3.2 0.00 0.00 0.00 56 1017.5
20260906013321 18 184 0.0 3.2 0.00 0.00 0.00 56 1017.5
20260906012839 18 208 0.0 8.0 0.00 0.00 0.00 56 1017.7
20260906012406 18 213 0.0 3.2 0.00 0.00 0.00 56 1017.5
20260906011916 18 198 0.0 8.0 0.00 0.00 0.00 55 1017.5
20260906011426 18 209 0.0 8.0 0.00 0.00 0.00 55 1017.4
20260906011001 18 179 0.0 3.2 0.00 0.00 0.00 55 1017.3
20260906010527 18 212 0.0 8.0 0.00 0.00 0.00 55 1017.3
20260906010033 18 221 0.0 12.9 0.00 0.00 0.00 55 1017.3
20260906005611 18 221 0.0 12.9 0.00 0.00 0.00 55 1017.3
20260906005201 18 194 0.0 3.2 0.00 0.00 0.00 55 1017.3
20260906004706 18 205 0.0 3.2 0.00 0.00 0.00 55 1017.2
20260906004226 18 209 0.0 3.2 0.00 0.00 0.00 55 1017.2
20260906003751 18 215 0.0 3.2 0.00 0.00 0.00 55 1017.3
20260906003311 18 202 0.0 3.2 0.00 0.00 0.00 55 1017.4
20260906002826 18 210 0.0 8.0 0.00 0.00 0.00 55 1017.4
20260906002416 18 212 0.0 8.0 0.00 0.00 0.00 55 1017.5
20260906001951 18 198 0.0 3.2 0.00 0.00 0.00 55 1017.3
20260906001547 18 198 0.0 3.2 0.00 0.00 0.00 55 1017.3
20260906001136 18 202 0.0 3.2 0.00 0.00 0.00 54 1017.3
20260906000701 18 227 0.0 8.0 0.00 0.00 0.00 54 1017.2
20260906000251 18 215 0.0 8.0 0.00 0.00 0.00 54 1017.2
20260905235831 18 212 0.0 8.0 0.00 0.00 0.00 54 1017.0
20260905235338 18 214 0.0 8.0 0.00 0.00 0.00 53 1017.2
20260905234936 18 208 0.0 8.0 0.00 0.00 0.00 54 1017.1
20260905234441 18 200 0.0 3.2 0.00 0.00 0.00 54 1017.1
20260905234036 18 190 0.0 3.2 0.00 0.00 0.00 55 1017.0
20260905233626 18 190 0.0 3.2 0.00 0.00 0.00 55 1017.0
20260905233151 18 202 0.0 3.2 0.00 0.00 0.00 55 1016.9
20260905232716 18 0.0 0.0 0.00 0.00 0.00 55 1017.0
20260905232216 18 0.0 0.0 0.00 0.00 0.00 55 1017.0
20260905231801 18 0.0 0.0 0.00 0.00 0.00 55 1016.9
20260905231336 18 0.0 0.0 0.00 0.00 0.00 55 1016.9
20260905230916 18 0.0 0.0 0.00 0.00 0.00 55 1016.9
20260905230511 18 0.0 0.0 0.00 0.00 0.00 55 1016.9
20260905230011 18 0.0 0.0 0.00 0.00 0.00 54 1016.9
20260905225606 18 0.0 0.0 0.00 0.00 0.00 54 1016.9
20260905225121 18 0.0 0.0 0.00 0.00 0.00 54 1016.9
20260905224621 18 0.0 0.0 0.00 0.00 0.00 55 1017.0
20260905224141 18 0.0 0.0 0.00 0.00 0.00 54 1016.9
20260905223641 18 0.0 0.0 0.00 0.00 0.00 55 1016.9
20260905223211 18 0.0 0.0 0.00 0.00 0.00 55 1016.9
20260905222756 18 0.0 0.0 0.00 0.00 0.00 54 1017.0
20260905222301 19 0.0 0.0 0.00 0.00 0.00 52 1016.9
20260905221901 19 219 0.0 3.2 0.00 0.00 0.00 53 1016.9
20260905221426 19 0.0 0.0 0.00 0.00 0.00 53 1016.9
20260905221026 20 0.0 0.0 0.00 0.00 0.00 51 1016.8
20260905220611 20 0.0 0.0 0.00 0.00 0.00 51 1016.8
20260905220146 20 0.0 0.0 0.00 0.00 0.00 52 1016.7
20260905215741 20 0.0 0.0 0.00 0.00 0.00 51 1016.7
20260905215326 20 0.0 0.0 0.00 0.00 0.00 51 1016.7
20260905214858 20 0.0 0.0 0.00 0.00 0.00 49 1016.6
20260905214431 20 196 0.0 3.2 0.00 0.00 0.00 48 1016.4
20260905213936 20 214 0.0 3.2 0.00 0.00 0.00 48 1016.3
20260905213531 20 224 0.0 3.2 0.00 0.00 0.00 48 1016.3
20260905213111 20 224 0.0 3.2 0.00 0.00 0.00 48 1016.3
20260905212626 20 236 0.0 3.2 0.00 0.00 0.00 47 1016.4
20260905212211 20 224 0.0 3.2 0.00 0.00 0.00 47 1016.3
20260905211811 21 210 0.0 3.2 0.00 0.00 0.00 47 1016.3
20260905211336 21 218 0.0 3.2 0.00 0.00 0.00 47 1016.2
20260905210911 21 235 0.0 8.0 0.00 0.00 0.00 47 1016.2
20260905210421 21 239 0.0 8.0 0.00 0.00 0.00 46 1016.2
20260905205946 21 247 0.0 8.0 0.00 0.00 0.00 46 1016.2
20260905205541 21 239 0.0 8.0 0.00 0.00 0.00 46 1015.9
20260905205121 21 239 0.0 8.0 0.00 0.00 0.00 46 1015.9
20260905204701 21 236 0.0 8.0 0.00 0.00 0.00 46 1015.9
20260905204256 21 222 0.0 3.2 0.00 0.00 0.00 47 1015.9
20260905203807 21 228 0.0 3.2 0.00 0.00 0.00 47 1015.9
20260905203401 21 210 0.0 3.2 0.00 0.00 0.00 46 1015.8
20260905202941 21 196 0.0 3.2 0.00 0.00 0.00 46 1015.9
20260905202501 21 0.0 0.0 0.00 0.00 0.00 46 1015.7
20260905202001 21 181 0.0 3.2 0.00 0.00 0.00 46 1015.6
20260905201521 21 208 0.0 3.2 0.00 0.00 0.00 46 1015.6
20260905201026 21 211 0.0 3.2 0.00 0.00 0.00 46 1015.6
20260905200551 21 211 0.0 3.2 0.00 0.00 0.00 46 1015.6
20260905200058 21 224 0.0 3.2 0.00 0.00 0.00 45 1015.5
20260905195641 21 220 0.0 3.2 0.00 0.00 0.00 45 1015.2
20260905195206 22 220 0.0 8.0 0.00 0.00 0.00 46 1015.2
20260905194706 22 234 0.0 8.0 0.00 0.00 0.00 46 1015.4
20260905194301 22 256 0.0 8.0 0.00 0.00 0.00 46 1015.2
20260905193816 22 224 0.0 8.0 0.00 0.00 0.00 46 1015.2
20260905193316 22 264 0.0 8.0 0.00 0.00 0.00 47 1015.3
20260905192912 22 245 0.0 8.0 0.00 0.00 0.00 45 1015.3
20260905192501 22 246 0.0 8.0 0.00 0.00 0.00 44 1015.2
20260905192016 22 249 0.0 8.0 0.00 0.00 0.00 44 1015.1
20260905191526 23 245 0.0 8.0 0.00 0.00 0.00 44 1015.2
20260905191059 23 245 0.0 8.0 0.00 0.00 0.00 44 1015.2
20260905190656 23 227 0.0 8.0 0.00 0.00 0.00 44 1015.0
20260905190221 23 194 0.0 3.2 0.00 0.00 0.00 45 1015.1
20260905185731 23 210 0.0 3.2 0.00 0.00 0.00 45 1015.0
20260905185326 23 216 0.0 8.0 0.00 0.00 0.00 45 1014.7
20260905184856 23 228 0.0 8.0 0.00 0.00 0.00 45 1014.7
20260905184426 23 243 0.0 12.9 0.00 0.00 0.00 45 1014.7
20260905183926 23 236 0.0 8.0 0.00 0.00 0.00 45 1014.7
20260905183511 23 236 0.0 12.9 0.00 0.00 0.00 45 1014.6
20260905183041 23 232 0.0 12.9 0.00 0.00 0.00 45 1014.6
20260905182621 23 232 0.0 12.9 0.00 0.00 0.00 45 1014.6
20260905182211 23 237 0.0 12.9 0.00 0.00 0.00 45 1014.6
20260905181711 23 216 0.0 12.9 0.00 0.00 0.00 44 1014.5
20260905181246 23 232 0.0 12.9 0.00 0.00 0.00 44 1014.4
20260905180831 24 228 0.0 8.0 0.00 0.00 0.00 44 1014.4
20260905180421 24 245 0.0 8.0 0.00 0.00 0.00 44 1014.3
20260905180001 24 243 0.0 12.9 0.00 0.00 0.00 44 1014.2
20260905175506 24 242 0.0 12.9 0.00 0.00 0.00 44 1014.1
20260905175101 24 242 0.0 12.9 0.00 0.00 0.00 44 1014.1
20260905174651 24 238 0.0 16.1 0.00 0.00 0.00 44 1013.9
20260905174206 24 264 0.0 16.1 0.00 0.00 0.00 44 1013.9
20260905173716 24 256 0.0 16.1 0.00 0.00 0.00 44 1014.2
20260905173231 25 259 0.0 12.9 0.00 0.00 0.00 44 1014.0
20260905172801 25 241 0.0 12.9 0.00 0.00 0.00 44 1014.1
20260905172336 25 256 0.0 16.1 0.00 0.00 0.00 44 1013.8
20260905171851 25 259 0.0 20.9 0.00 0.00 0.00 44 1013.9
20260905171401 25 265 0.0 16.1 0.00 0.00 0.00 44 1013.9
20260905170953 25 241 0.0 16.1 0.00 0.00 0.00 43 1014.0
20260905170516 25 267 0.0 12.9 0.00 0.00 0.00 43 1013.9
20260905170036 26 251 0.0 16.1 0.00 0.00 0.00 43 1013.8
20260905165626 26 251 0.0 16.1 0.00 0.00 0.00 43 1013.8
20260905165211 26 243 0.0 16.1 0.00 0.00 0.00 43 1013.7
20260905164716 26 259 0.0 24.1 0.00 0.00 0.00 43 1013.7
20260905164216 26 259 0.0 16.1 0.00 0.00 0.00 43 1013.9
20260905163816 26 271 0.0 20.9 0.00 0.00 0.00 43 1013.8
20260905163316 27 280 0.0 27.4 0.00 0.00 0.00 43 1013.5
20260905162851 27 283 0.0 24.1 0.00 0.00 0.00 43 1013.7
20260905162436 27 275 0.0 20.9 0.00 0.00 0.00 43 1013.7
20260905161951 27 288 0.0 24.1 0.00 0.00 0.00 43 1013.6
20260905161526 27 270 0.0 24.1 0.00 0.00 0.00 43 1013.7
20260905161046 27 270 0.0 24.1 0.00 0.00 0.00 43 1013.7
20260905160631 28 298 0.0 24.1 0.00 0.00 0.00 43 1013.5
20260905160221 28 275 0.0 27.4 0.00 0.00 0.00 45 1013.6
20260905155801 28 283 0.0 24.1 0.00 0.00 0.00 43 1013.5
20260905155326 28 270 0.0 27.4 0.00 0.00 0.00 43 1013.5
20260905154846 29 280 0.0 20.9 0.00 0.00 0.00 44 1013.5
20260905154436 29 215 0.0 12.9 0.00 0.00 0.00 44 1013.2
20260905154020 29 266 0.0 24.1 0.00 0.00 0.00 44 1013.3
20260905153531 30 268 0.0 24.1 0.00 0.00 0.00 44 1013.1
20260905153121 30 268 0.0 24.1 0.00 0.00 0.00 44 1013.1
20260905152631 30 273 0.0 24.1 0.00 0.00 0.00 45 1013.1
20260905152141 30 262 0.0 24.1 0.00 0.00 0.00 44 1012.9
20260905151651 30 279 0.0 27.4 0.00 0.00 0.00 44 1012.9
20260905151211 31 275 0.0 24.1 0.00 0.00 0.00 43 1013.0
20260905150726 31 277 0.0 20.9 0.00 0.00 0.00 43 1013.0
20260905150241 31 254 0.0 27.4 0.00 0.00 0.00 43 1012.9
20260905145756 31 256 0.0 20.9 0.00 0.00 0.00 43 1012.9
20260905145311 31 279 0.0 20.9 0.00 0.00 0.00 43 1013.1
20260905144851 31 270 0.0 20.9 0.00 0.00 0.00 43 1012.9
20260905144414 30 243 0.0 16.1 0.00 0.00 0.00 43 1013.0
20260905144011 30 244 0.0 16.1 0.00 0.00 0.00 43 1012.9
20260905143516 30 247 0.0 16.1 0.00 0.00 0.00 43 1012.9
20260905143041 30 237 0.0 20.9 0.00 0.00 0.00 43 1012.9
20260905142631 30 237 0.0 20.9 0.00 0.00 0.00 43 1012.9
20260905142225 31 251 0.0 24.1 0.00 0.00 0.00 43 1012.8
20260905141721 31 239 0.0 20.9 0.00 0.00 0.00 43 1012.7
20260905141316 31 311 0.0 20.9 0.00 0.00 0.00 43 1012.8
20260905140851 32 246 0.0 20.9 0.00 0.00 0.00 43 1012.8
20260905140356 32 244 0.0 24.1 0.00 0.00 0.00 43 1012.6
20260905135946 32 244 0.0 20.9 0.00 0.00 0.00 43 1012.6
20260905135533 32 277 0.0 27.4 0.00 0.00 0.00 43 1012.6
20260905135126 32 277 0.0 27.4 0.00 0.00 0.00 43 1012.6
20260905134701 32 271 0.0 24.1 0.00 0.00 0.00 43 1012.5
20260905134246 32 210 0.0 12.9 0.00 0.00 0.00 43 1012.5
20260905133756 32 234 0.0 20.9 0.00 0.00 0.00 43 1012.5
20260905133335 32 219 0.0 20.9 0.00 0.00 0.00 43 1012.6
20260905132841 31 276 0.0 20.9 0.00 0.00 0.00 43 1012.5
20260905132346 31 254 0.0 24.1 0.00 0.00 0.00 43 1012.4
20260905131857 31 271 0.0 16.1 0.00 0.00 0.00 43 1012.4
20260905131456 31 297 0.0 27.4 0.00 0.00 0.00 43 1012.4
20260905131016 31 235 0.0 24.1 0.00 0.00 0.00 43 1012.3
20260905130601 31 235 0.0 24.1 0.00 0.00 0.00 43 1012.3
20260905130106 32 265 0.0 24.1 0.00 0.00 0.00 43 1012.5
20260905125606 31 273 0.0 32.2 0.00 0.00 0.00 43 1012.3
20260905125136 31 268 0.0 32.2 0.00 0.00 0.00 43 1012.4
20260905124731 31 271 0.0 27.4 0.00 0.00 0.00 43 1012.3
20260905124236 31 285 0.0 27.4 0.00 0.00 0.00 43 1012.3
20260905123826 31 259 0.0 27.4 0.00 0.00 0.00 43 1012.5
20260905123341 31 279 0.0 27.4 0.00 0.00 0.00 43 1012.4
20260905122901 31 245 0.0 32.2 0.00 0.00 0.00 43 1012.3
20260905122426 31 269 0.0 27.4 0.00 0.00 0.00 43 1012.4
20260905121951 31 276 0.0 32.2 0.00 0.00 0.00 43 1012.4
20260905121501 31 252 0.0 27.4 0.00 0.00 0.00 43 1012.2
20260905121021 31 268 0.0 27.4 0.00 0.00 0.00 43 1012.2
20260905120556 31 268 0.0 27.4 0.00 0.00 0.00 43 1012.2
20260905120059 31 283 0.0 27.4 0.00 0.00 0.00 43 1012.3
20260905115601 32 264 0.0 24.1 0.00 0.00 0.00 43 1012.3
20260905115126 32 292 0.0 32.2 0.00 0.00 0.00 43 1012.4
20260905114706 32 288 0.0 40.2 0.00 0.00 0.00 43 1012.2
20260905114246 33 267 0.0 32.2 0.00 0.00 0.00 43 1012.0
20260905113807 33 256 0.0 27.4 0.00 0.00 0.00 43 1011.9
20260905113401 34 269 0.0 27.4 0.00 0.00 0.00 45 1012.0
20260905112951 34 261 0.0 24.1 0.00 0.00 0.00 45 1012.0
20260905112506 35 270 0.0 24.1 0.00 0.00 0.00 44 1012.0
20260905112011 35 275 0.0 24.1 0.00 0.00 0.00 44 1011.9
20260905111547 35 275 0.0 24.1 0.00 0.00 0.00 44 1011.9
20260905111057 35 290 0.0 27.4 0.00 0.00 0.00 44 1011.9
20260905110656 35 259 0.0 24.1 0.00 0.00 0.00 43 1012.0
20260905110221 35 248 0.0 16.1 0.00 0.00 0.00 43 1012.1
20260905105741 34 214 0.0 16.1 0.00 0.00 0.00 43 1012.0
20260905105246 34 247 0.0 12.9 0.00 0.00 0.00 43 1012.2
20260905104816 34 261 0.0 16.1 0.00 0.00 0.00 43 1012.1
20260905104340 33 248 0.0 12.9 0.00 0.00 0.00 44 1012.2
20260905103931 33 272 0.0 16.1 0.00 0.00 0.00 44 1012.3
20260905103506 33 252 0.0 24.1 0.00 0.00 0.00 44 1012.1
20260905103047 33 250 0.0 16.1 0.00 0.00 0.00 44 1012.3
20260905102611 33 250 0.0 16.1 0.00 0.00 0.00 44 1012.3
20260905102146 33 245 0.0 12.9 0.00 0.00 0.00 44 1012.3
20260905101711 32 303 0.0 20.9 0.00 0.00 0.00 45 1012.3
20260905101301 32 254 0.0 16.1 0.00 0.00 0.00 45 1012.3
20260905100846 32 245 0.0 27.4 0.00 0.00 0.00 44 1012.5
20260905100356 32 248 0.0 24.1 0.00 0.00 0.00 45 1012.3
20260905095901 32 249 0.0 27.4 0.00 0.00 0.00 45 1012.3
20260905095441 32 252 0.0 24.1 0.00 0.00 0.00 43 1012.4
20260905095031 32 264 0.0 32.2 0.00 0.00 0.00 43 1012.4
20260905094551 32 264 0.0 32.2 0.00 0.00 0.00 43 1012.4
20260905094111 32 245 0.0 24.1 0.00 0.00 0.00 43 1012.3
20260905093615 32 251 0.0 24.1 0.00 0.00 0.00 44 1012.3
20260905093141 32 247 0.0 20.9 0.00 0.00 0.00 45 1012.3
20260905092656 32 241 0.0 20.9 0.00 0.00 0.00 44 1012.4
20260905092206 32 244 0.0 20.9 0.00 0.00 0.00 43 1012.2
20260905091731 31 250 0.0 24.1 0.00 0.00 0.00 43 1012.2
20260905091311 31 251 0.0 24.1 0.00 0.00 0.00 43 1012.1
20260905090841 31 248 0.0 24.1 0.00 0.00 0.00 43 1012.2
20260905090356 31 245 0.0 24.1 0.00 0.00 0.00 43 1012.2
20260905085911 31 250 0.0 24.1 0.00 0.00 0.00 43 1012.1
20260905085421 31 244 0.0 20.9 0.00 0.00 0.00 43 1012.3
20260905085011 31 237 0.0 20.9 0.00 0.00 0.00 43 1012.1
20260905084547 31 245 0.0 20.9 0.00 0.00 0.00 43 1012.0
20260905084127 31 245 0.0 20.9 0.00 0.00 0.00 43 1012.0
20260905083641 31 249 0.0 24.1 0.00 0.00 0.00 43 1012.1
20260905083141 31 241 0.0 16.1 0.00 0.00 0.00 43 1012.0
20260905082726 31 231 0.0 16.1 0.00 0.00 0.00 43 1012.1
20260905082241 30 240 0.0 16.1 0.00 0.00 0.00 43 1012.0
20260905081801 30 257 0.0 12.9 0.00 0.00 0.00 43 1012.2
20260905081336 30 246 0.0 16.1 0.00 0.00 0.00 43 1012.1
20260905080856 30 249 0.0 12.9 0.00 0.00 0.00 43 1012.2
20260905080426 29 217 0.0 12.9 0.00 0.00 0.00 43 1012.2
20260905075926 28 236 0.0 12.9 0.00 0.00 0.00 43 1012.1
20260905075506 28 242 0.0 16.1 0.00 0.00 0.00 44 1012.2
20260905075041 28 242 0.0 16.1 0.00 0.00 0.00 44 1012.2
20260905074616 27 229 0.0 16.1 0.00 0.00 0.00 44 1012.0
20260905074211 27 247 0.0 16.1 0.00 0.00 0.00 44 1012.0
20260905073726 27 232 0.0 12.9 0.00 0.00 0.00 44 1012.2
20260905073255 27 231 0.0 16.1 0.00 0.00 0.00 43 1012.2
20260905072856 26 238 0.0 20.9 0.00 0.00 0.00 43 1012.1
20260905072431 26 233 0.0 16.1 0.00 0.00 0.00 43 1012.1
20260905072001 26 224 0.0 12.9 0.00 0.00 0.00 43 1012.2
20260905071541 26 224 0.0 12.9 0.00 0.00 0.00 43 1012.2
20260905071041 26 241 0.0 16.1 0.00 0.00 0.00 43 1012.2
20260905070546 25 234 0.0 12.9 0.00 0.00 0.00 43 1012.3
20260905070046 25 234 0.0 12.9 0.00 0.00 0.00 43 1012.3
20260905065618 25 244 0.0 16.1 0.00 0.00 0.00 43 1012.6
20260905065146 25 223 0.0 12.9 0.00 0.00 0.00 43 1012.7
20260905064656 24 229 0.0 12.9 0.00 0.00 0.00 43 1012.7
20260905064216 24 244 0.0 12.9 0.00 0.00 0.00 43 1012.7
20260905063811 23 241 0.0 12.9 0.00 0.00 0.00 43 1012.8
20260905063326 23 228 0.0 12.9 0.00 0.00 0.00 44 1012.6
20260905062911 23 234 0.0 16.1 0.00 0.00 0.00 44 1012.6
20260905062501 23 241 0.0 16.1 0.00 0.00 0.00 44 1012.4
20260905062051 23 241 0.0 16.1 0.00 0.00 0.00 44 1012.4
20260905061616 23 244 0.0 16.1 0.00 0.00 0.00 45 1012.2
20260905061126 22 232 0.0 16.1 0.00 0.00 0.00 45 1012.1
20260905060646 22 236 0.0 20.9 0.00 0.00 0.00 45 1012.1
20260905060217 22 247 0.0 16.1 0.00 0.00 0.00 45 1011.9
20260905055741 22 237 0.0 12.9 0.00 0.00 0.00 46 1011.9
20260905055311 22 236 0.0 12.9 0.00 0.00 0.00 46 1011.9
20260905054833 21 240 0.0 12.9 0.00 0.00 0.00 47 1011.9
20260905054351 21 233 0.0 12.9 0.00 0.00 0.00 47 1011.7
20260905053936 21 210 0.0 12.9 0.00 0.00 0.00 47 1011.4
20260905053527 21 234 0.0 12.9 0.00 0.00 0.00 48 1011.2
20260905053036 21 234 0.0 12.9 0.00 0.00 0.00 48 1011.2
20260905052536 21 210 0.0 12.9 0.00 0.00 0.00 48 1011.1
20260905052036 21 217 0.0 8.0 0.00 0.00 0.00 48 1010.9
20260905051551 21 233 0.0 8.0 0.00 0.00 0.00 48 1010.8
20260905051106 21 190 0.0 12.9 0.00 0.00 0.00 48 1010.8
20260905050631 21 216 0.0 12.9 0.00 0.00 0.00 48 1010.6
20260905050211 21 218 0.0 12.9 0.00 0.00 0.00 48 1010.5
20260905045736 20 206 0.0 16.1 0.00 0.00 0.00 48 1010.3
20260905045326 20 226 0.0 12.9 0.00 0.00 0.00 48 1010.2
20260905044921 20 212 0.0 12.9 0.00 0.00 0.00 50 1010.1
20260905044456 20 211 0.0 12.9 0.00 0.00 0.00 50 1009.9
20260905044031 20 210 0.0 12.9 0.00 0.00 0.00 50 1009.9
20260905043531 20 213 0.0 12.9 0.00 0.00 0.00 50 1009.8
20260905043126 20 213 0.0 12.9 0.00 0.00 0.00 50 1009.8
20260905042641 20 208 0.0 8.0 0.00 0.00 0.00 49 1009.8
20260905042146 20 208 0.0 8.0 0.00 0.00 0.00 49 1009.7
20260905041651 20 211 0.0 12.9 0.00 0.00 0.00 49 1009.7
20260905041217 20 213 0.0 12.9 0.00 0.00 0.00 50 1009.7
20260905040807 20 206 0.0 12.9 0.00 0.00 0.00 50 1009.8
20260905040351 20 202 0.0 8.0 0.00 0.00 0.00 50 1009.8
20260905035851 20 214 0.0 12.9 0.00 0.00 0.00 51 1009.8
20260905035416 20 205 0.0 8.0 0.00 0.00 0.00 51 1009.7
20260905035007 20 198 0.0 3.2 0.00 0.00 0.00 51 1009.5
20260905034521 20 217 0.0 8.0 0.00 0.00 0.00 51 1009.7
20260905034116 20 217 0.0 8.0 0.00 0.00 0.00 51 1009.7
20260905033621 20 229 0.0 8.0 0.00 0.00 0.00 51 1009.8
20260905033146 20 211 0.0 8.0 0.00 0.00 0.00 51 1009.7
20260905032706 19 220 0.0 8.0 0.00 0.00 0.00 51 1009.6
20260905032240 19 204 0.0 8.0 0.00 0.00 0.00 53 1009.7
20260905031811 19 215 0.0 3.2 0.00 0.00 0.00 54 1009.8
20260905031341 20 183 0.0 3.2 0.00 0.00 0.00 54 1009.8
20260905030901 20 226 0.0 8.0 0.00 0.00 0.00 54 1009.7
20260905030401 20 206 0.0 3.2 0.00 0.00 0.00 54 1009.8
20260905025907 20 218 0.0 8.0 0.00 0.00 0.00 54 1009.7
20260905025506 20 206 0.0 8.0 0.00 0.00 0.00 52 1009.8
20260905025007 20 201 0.0 3.2 0.00 0.00 0.00 51 1009.7
20260905024517 20 203 0.0 8.0 0.00 0.00 0.00 51 1009.7
20260905024036 21 207 0.0 8.0 0.00 0.00 0.00 50 1009.7